Overview Statistics Trail Chart Weather Telemetry Raw packets
 

This is the latest recevied weather packets stored in our database for station/object W4SNA-3. If no packets are shown the sender has not sent any weather packets the latest 10 day(s).

<< 100 101 102 103 104 105 106 >>
Time Temp. Humidity Pressure Rain* Wind** Luminosity Snow
1787838330 22.78° C 85% 1017.7 hPa 0 mm - - -
1787838030 23.33° C 85% 1017.7 hPa 0 mm - - -
1787837732 23.33° C 84% 1017.6 hPa 0 mm - - -
1787837431 23.33° C 84% 1017.6 hPa 0 mm - - -
1787837130 23.33° C 83% 1017.7 hPa 0 mm - - -
1787836830 23.33° C 85% 1017.5 hPa 0 mm - - -
1787836530 23.33° C 86% 1017.5 hPa 0 mm - - -
1787836230 22.78° C 86% 1017.5 hPa 0 mm - - -
1787835930 22.78° C 85% 1017.4 hPa 0 mm - - -
1787835639 22.78° C 88% 1017.6 hPa 0 mm - - -
1787835330 22.22° C 94% 1017.6 hPa 0 mm - - -
1787835030 21.67° C 97% 1017.6 hPa 0 mm - - -
1787834730 21.11° C 98% 1017.6 hPa 0 mm - - -
1787834430 20.56° C 99% 1017.5 hPa 0 mm - - -
1787834130 20.56° C 98% 1017.5 hPa 0 mm - - -
1787833830 20° C 99% 1017.5 hPa 0 mm - - -
1787833530 19.44° C 98% 1017.4 hPa 0 mm - - -
1787833230 19.44° C 98% 1017.4 hPa 0 mm - - -
1787832930 18.89° C 98% 1017.4 hPa 0 mm - - -
1787832639 18.33° C 98% 1017.3 hPa 0 mm - - -
1787832330 18.33° C 98% 1017.3 hPa 0 mm - - -
1787832031 18.33° C 98% 1017.3 hPa 0 mm - - -
1787831523 18.33° C 98% 1017.3 hPa 0 mm - - -
1787831227 18.33° C 98% 1017.3 hPa 0 mm - - -
1787830923 18.33° C 98% 1017.3 hPa 0 mm - - -

* Rain latest hour (hover to see other rain measurements)
** Current wind speed in m/s (hover to see current wind gust speed)